Simultaneous Nadir Overpasses (SNOs) Predictions

Prediction of SNOs between AQUA and METOP-A Satellite Orbit:

Table of predicted SNOs for the next 14.0 days since TLE Epoch: 12/28/2013
Index Date (AQUA) Time (AQUA) Lat,Lon (AQUA) SZA (AQUA ) Date (METOP-A) Time (METOP-A) Lat,Lon (METOP-A) SZA (METOP-A ) Distance(km) Time Diff (sec)
1 12/30/2013 01:43:18 73.85, 148.35 97.02 12/30/2013 01:42:35 73.86, 148.37 97.03 1.31 43
2 12/30/2013 02:32:45 -73.93, -44.19 82.91 12/30/2013 02:33:15 -73.94, -44.12 82.90 2.19 30
3 01/01/2014 21:17:31 73.84,-145.18 96.80 01/01/2014 21:16:56 73.86,-145.24 96.82 2.71 35
4 01/01/2014 22:06:58 -73.91, 22.30 83.13 01/01/2014 22:07:36 -73.93, 22.27 83.11 2.04 38
5 01/04/2014 16:51:45 73.86, -78.77 96.55 01/04/2014 16:51:18 73.84, -78.87 96.55 3.57 27
6 01/04/2014 17:41:12 -73.93, 88.71 83.38 01/04/2014 17:41:58 -73.92, 88.65 83.39 2.42 46
7 01/07/2014 11:36:19 -73.25,-178.66 84.42 01/07/2014 11:35:12 -73.22, 178.79 84.34 81.79 67
8 01/07/2014 12:25:58 73.86, -12.32 96.23 01/07/2014 12:25:39 73.87, -12.39 96.25 2.73 19
9 01/07/2014 13:15:25 -73.93, 155.17 83.71 01/07/2014 13:16:19 -73.95, 155.12 83.69 2.82 54
10 01/10/2014 07:10:37 -73.59,-112.92 84.44 01/10/2014 07:09:26 -73.55,-114.08 84.43 36.63 71
11 01/10/2014 08:00:10 73.89, 54.07 95.88 01/10/2014 07:59:59 73.89, 54.07 95.89 0.35 11
12 01/10/2014 08:49:37 -73.95,-138.44 84.06 01/10/2014 08:50:39 -73.97,-138.41 84.05 1.98 62




NCC Satellite Simultaneous Nadir Overpasses (SNOs) Prediction Service
